User: anonymous   Login
Location: Middlebury
(44.0153°N, 73.1678°W)
Time: 01:51:41
(UTC-04:00)
Language:

XW-2C - Orbit

View from above orbital plane
View from above orbital plane
View from above satellite
View from above satellite

Ground track
Ground track

The orbit data is extracted from the following two-line orbital elements,

1 40906U 15049H   24173.92136614  .00025430  00000-0  57943-3 0  9992
2 40906  97.4765 190.8546 0005510 280.4191  79.6435 15.42906141485204
Epoch (UTC): 21 June 2024 22:06:46
Eccentricity: 0.0005510
inclination: 97.4765°
perigee height: 434 km
apogee height: 441 km
right ascension of ascending node: 190.8546°
argument of perigee: 280.4191°
revolutions per day: 15.42906141
mean anomaly at epoch: 79.6435°
orbit number at epoch: 48520

The dashed part of the orbit path shows where the satellite is in the earth's shadow,  

DLR